Regional Weather Roundup
Issued by NWS

Home | Current Version | Previous Version | Text Only | Print | Product List | Glossary Off
Versions: 1 2 3 4 5 6 7 8 9 10 11 12 13 14 15 16 17 18 19 20 21 22 23 24 25 26 27 28 29 30 31 32 33 34 35 36 37 38 39 40 41 42 43 44 45 46 47 48 49 50

312
ASUS43 KOAX 240110
RWRNE

WEATHER ROUNDUP FOR NEBRASKA
NATIONAL WEATHER SERVICE OMAHA NE
700 PM CST MON JAN 23 2017

NOTES: SATELLITE DATA IS BEING USED TO AUGMENT CLOUD COVER ABOVE
       12000 FEET.
       "FAIR" INDICATES FEW OR NO CLOUDS BELOW 12,000 FEET WITH NO
       SIGNIFICANT WEATHER AND/OR OBSTRUCTIONS TO VISIBILITY.

  * THESE STATIONS DO NOT REPORT WEATHER SUCH AS RAIN...SNOW OR FOG.

NEZ001>004-019>022-054>056-240200-
NEBRASKA PANHANDLE

CITY           SKY/WX    TMP DP  RH WIND       PRES   REMARKS
SCOTTSBLUFF    CLOUDY    39  26  59 CALM      29.57R
ALLIANCE       CLEAR     31  24  75 S6        29.57R WCI  25
CHADRON        CLOUDY    26  24  92 NE12      29.65R WCI  16
KIMBALL        CLOUDY    35  34  96 NE8       29.55F WCI  28
SIDNEY         MOCLDY    33  26  75 NE6       29.57R WCI  28
$$

NEZ057>060-069>072-079>082-240200-
SOUTHWEST NEBRASKA

CITY           SKY/WX    TMP DP  RH WIND       PRES   REMARKS
NORTH PLATTE   CLEAR     34  27  75 E8        29.60R WCI  27
IMPERIAL       CLOUDY    38  28  67 NE7       29.58R WCI  33
LEXINGTON      CLEAR     38  32  77 E12       29.63R WCI  31
MCCOOK         CLEAR     40  30  67 E9        29.59R WCI  34
OGALLALA       PTCLDY    34  28  77 CALM      29.57F
$$

NEZ005>010-023>029-035>040-094-240200-
NORTH CENTRAL NEBRASKA

CITY           SKY/WX    TMP DP  RH WIND       PRES   REMARKS
VALENTINE      CLEAR     34  27  75 E9        29.64R WCI  27
AINSWORTH      CLEAR     31  29  94 E10       29.65R WCI  22
BROKEN BOW     PTCLDY    34  32  92 E8        29.65R WCI  27
O`NEILL        CLOUDY    33  31  91 SE10      29.73R WCI  25
ORD            CLOUDY    32  29  88 E9        29.70R WCI  24
THEDFORD       CLEAR     36  29  78 SE7       29.62R WCI  30
$$

NEZ041-046>049-061>064-073>077-083>087-240200-
SOUTH CENTRAL NEBRASKA

CITY           SKY/WX    TMP DP  RH WIND       PRES   REMARKS
GRAND ISLAND   CLOUDY    31  31 100 E10       29.72R FOG     WCI  22
AURORA         CLOUDY    32  32 100 SE14G20   29.71S FOG     WCI  22
HASTINGS       CLOUDY    33  32  96 E15       29.69S FOG     WCI  23
HEBRON         CLOUDY    33  33 100 E10       29.74S FOG     WCI  24
HOLDREGE       CLEAR     35  29  80 SE9       29.64R WCI  28
KEARNEY *      CLOUDY    34  32  93 E13       29.68R VSB 3/4 WCI  25
YORK           CLOUDY    32  32 100 SE13      29.73S WCI  22
$$

NEZ011>018-030>034-042>045-240200-
NORTHEAST NEBRASKA

CITY           SKY/WX    TMP DP  RH WIND       PRES   REMARKS
NORFOLK        CLOUDY    32  28  85 E10       29.76R WCI  24
ALBION         CLOUDY    34  31  88 E12       29.74S WCI  26
BLAIR          CLOUDY    32  30  91 E9        29.81R WCI  24
FREMONT        CLOUDY    33  30  89 E8        29.81R WCI  26
TEKAMAH        CLOUDY    32  29  88 E7        29.83R WCI  26
WAYNE          CLOUDY    32  30  92 SE9       29.80R WCI  24
$$

NEZ050>053-065>068-078-088>093-240200-
SOUTHEAST NEBRASKA

CITY           SKY/WX    TMP DP  RH WIND       PRES   REMARKS
LINCOLN        PTCLDY    34  30  85 SE10      29.81R WCI  26
OMAHA EPPLEY   CLOUDY    33  27  78 SE9       29.83R WCI  25
BEATRICE       CLEAR     34  32  92 E8        29.78R WCI  27
FALLS CITY     CLEAR     32  29  88 E8        29.82R WCI  25
NEBRASKA CITY  CLOUDY    32  30  92 E7        29.83R WCI  26
PLATTSMOUTH    CLOUDY    32  27  82 SE9       29.82R WCI  24
$$

NEZ044-045-051>053-067-240200-
OMAHA AREA

CITY           SKY/WX    TMP DP  RH WIND       PRES   REMARKS
OMAHA EPPLEY   CLOUDY    33  27  78 SE9       29.83R WCI  25
BLAIR          CLOUDY    32  30  91 E9        29.81R WCI  24
FREMONT        CLOUDY    33  30  89 E8        29.81R WCI  26
MILLARD        CLOUDY    35  31  85 SE10      29.83R WCI  27
OFFUTT AFB     MOCLDY    32  32  99 E7        29.83R WCI  26
PLATTSMOUTH    CLOUDY    32  27  82 SE9       29.82R WCI  24
WAHOO          FAIR      32  30  91 SE13      29.81R WCI  23
$$




USA.gov is the U.S. government's official web portal to all federal, state and local government web resources and services.